Edwards, CA

11:14 PM PDT on July 23, 2016 (GMT -0700)
Edwards Air Force Base

Weather History for KEDW - November, 2012

Change the Weather History Date:

Wednesday, November 28, 2012

  Actual Average Record
Temperature  
Mean Temperature 51 °F -  
Max Temperature 69 °F 59 °F 73 °F (2014)
Min Temperature 33 °F 31 °F 23 °F (2005)
Degree Days  
Heating Degree Days 14    
Growing Degree Days 1 (Base 50)    
Moisture  
Dew Point 33 °F    
Average Humidity 51    
Maximum Humidity 100    
Minimum Humidity 28    
Precipitation  
Precipitation 0.00 in - - ()
Sea Level Pressure  
Sea Level Pressure 30.10 in    
Wind  
Wind Speed 8 mph (WSW)    
Max Wind Speed 29 mph    
Max Gust Speed 37 mph    
Visibility 13 miles    
Events Rain    
Averages and records for this station are not official NWS values.
T = Trace of Precipitation, MM = Missing Value Source: NWS Daily Summary

Daily Weather History Graph

Daily Weather History Graph

Search for Another Location

Airport or City:

Trip Planner

Search our weather history database for the weather conditions in past years. The results will help you decide how hot, cold, wet, or windy it might be!

Date:

Astronomy

Nov. 28, 2012 Rise Set
Actual Time 6:38 AM PST 4:40 PM PST
Civil Twilight 6:11 AM PST 5:08 PM PST
Nautical Twilight 5:40 AM PST 5:39 PM PST
Astronomical Twilight 5:09 AM PST 6:09 PM PST
Moon 4:59 PM PST (11/28) 6:40 AM PST (11/28)
Length of Visible Light 10h 56m
Length of Day
10h 01m
Full, 100% of the Moon is Illuminated
Nov 28
Full
Dec 6
Last Quarter
Dec 13
New
Dec 19
First Quarter
Dec 28
Full

Hourly Weather History & Observations

Time (PST) Temp. Windchill Dew Point Humidity Pressure Visibility Wind Dir Wind Speed Gust Speed Precip Events Conditions
12:03 AM 39.2 °F - 17.6 °F 42% 30.12 in 10.0 mi Calm Calm - N/A   Mostly Cloudy
12:23 AM 39.2 °F 35.9 °F 17.6 °F 42% 30.12 in 10.0 mi South 4.6 mph - N/A   Scattered Clouds
12:58 AM 39.2 °F 37.0 °F 17.1 °F 41% 30.10 in 10.0 mi NW 3.5 mph - N/A   Clear
1:58 AM 38.1 °F - 14.7 °F 39% 30.09 in 10.0 mi Calm Calm - N/A   Clear
2:58 AM 35.6 °F 30.7 °F 16.2 °F 45% 30.08 in 10.0 mi WSW 5.8 mph - N/A   Clear
3:58 AM 36.7 °F 32.0 °F 15.8 °F 43% 30.08 in 10.0 mi North 5.8 mph - N/A   Clear
4:58 AM 33.1 °F - 12.7 °F 43% 30.10 in 10.0 mi ESE 2.3 mph - N/A   Clear
5:58 AM 33.4 °F - 13.3 °F 43% 30.12 in 30.0 mi Calm Calm - N/A   Partly Cloudy
6:58 AM 34.7 °F - 14.0 °F 43% 30.13 in 50.0 mi NW 2.3 mph - N/A   Partly Cloudy
7:58 AM 36.9 °F - 14.5 °F 40% 30.16 in 60.0 mi NE 2.3 mph - N/A   Mostly Cloudy
8:58 AM 43.7 °F - 20.5 °F 40% 30.16 in 70.0 mi NNW 2.3 mph - N/A   Mostly Cloudy
9:58 AM 51.4 °F - 24.4 °F 35% 30.14 in 70.0 mi WSW 4.6 mph - N/A   Mostly Cloudy
10:43 AM 57.2 °F - 32.0 °F 38% 30.14 in 50.0 mi SW 6.9 mph - N/A   Mostly Cloudy
10:58 AM 59.4 °F - 35.1 °F 40% 30.14 in 50.0 mi WSW 6.9 mph - N/A   Mostly Cloudy
11:58 AM 62.6 °F - 36.9 °F 38% 30.08 in 50.0 mi SSE 4.6 mph - N/A   Mostly Cloudy
12:58 PM 65.5 °F - 37.6 °F 36% 30.05 in 40.0 mi South 6.9 mph - N/A   Mostly Cloudy
1:27 PM 69.8 °F - 35.6 °F 28% 30.05 in 40.0 mi SW 13.8 mph 23.0 mph N/A   Mostly Cloudy
1:33 PM 69.8 °F - 35.6 °F 28% 30.05 in 40.0 mi WSW 21.9 mph 28.8 mph N/A   Mostly Cloudy
1:58 PM 67.3 °F - 36.1 °F 32% 30.04 in 40.0 mi WSW 28.8 mph 35.7 mph N/A   Mostly Cloudy
2:11 PM 66.2 °F - 37.4 °F 35% 30.04 in 10.0 mi WSW 23.0 mph 36.8 mph N/A   Light Drizzle
2:12 PM 66.2 °F - 37.4 °F 35% 30.04 in 40.0 mi WSW 25.3 mph 36.8 mph N/A Rain Light Rain
2:19 PM 64.4 °F - 37.4 °F 37% 30.04 in 40.0 mi WSW 25.3 mph 34.5 mph N/A   Mostly Cloudy
2:58 PM 61.9 °F - 39.6 °F 44% 30.04 in 50.0 mi WSW 19.6 mph 26.5 mph 0.00 in   Mostly Cloudy
3:58 PM 60.3 °F - 44.2 °F 55% 30.06 in 50.0 mi WSW 16.1 mph - N/A   Mostly Cloudy
4:58 PM 56.7 °F - 46.4 °F 69% 30.09 in 40.0 mi WSW 24.2 mph 31.1 mph N/A   Mostly Cloudy
5:58 PM 54.5 °F - 45.5 °F 72% 30.11 in 40.0 mi WSW 19.6 mph - N/A   Mostly Cloudy
6:58 PM 54.7 °F - 48.4 °F 79% 30.10 in 20.0 mi WSW 25.3 mph 32.2 mph N/A   Mostly Cloudy
7:58 PM 55.0 °F - 48.6 °F 79% 30.11 in 20.0 mi WSW 20.7 mph - N/A   Mostly Cloudy
8:58 PM 54.5 °F - 49.5 °F 83% 30.11 in 20.0 mi WSW 19.6 mph 28.8 mph N/A   Scattered Clouds
9:58 PM 53.6 °F - 49.3 °F 85% 30.12 in 20.0 mi West 19.6 mph - N/A   Mostly Cloudy
10:58 PM 53.4 °F - 50.4 °F 89% 30.11 in 10.0 mi West 17.3 mph - N/A   Scattered Clouds
11:53 PM 51.8 °F - 51.8 °F 100% 30.14 in 10.0 mi South 6.9 mph - N/A   Mostly Cloudy
11:58 PM 51.8 °F - 51.4 °F 99% 30.12 in 10.0 mi South 5.8 mph - N/A   Mostly Cloudy